Weather History for KCBM - November, 2012

Change the Weather History Date:

Sunday, November 25, 2012

  Actual Average Record
Temperature  
Mean Temperature 41 °F -  
Max Temperature 59 °F 60 °F 75 °F (2010)
Min Temperature 23 °F 40 °F 23 °F (2012)
Degree Days  
Heating Degree Days 24    
Moisture  
Dew Point 26 °F    
Average Humidity 63    
Maximum Humidity 91    
Minimum Humidity 25    
Precipitation  
Precipitation 0.00 in - - ()
Sea Level Pressure  
Sea Level Pressure 30.15 in    
Wind  
Wind Speed 3 mph (SSE)    
Max Wind Speed 9 mph    
Max Gust Speed -    
Visibility 10 miles    
Events      
Averages and records for this station are not official NWS values.
T = Trace of Precipitation, MM = Missing Value Source: NWS Daily Summary

Daily Weather History Graph

Daily Weather History Graph

Search for Another Location

Airport or City:

Trip Planner

Search our weather history database for the weather conditions in past years. The results will help you decide how hot, cold, wet, or windy it might be!

Date:

Astronomy

Nov. 25, 2012 Rise Set
Actual Time 6:35 AM CST 4:46 PM CST
Civil Twilight 6:08 AM CST 5:13 PM CST
Nautical Twilight 5:37 AM CST 5:43 PM CST
Astronomical Twilight 5:07 AM CST 6:13 PM CST
Moon 2:58 PM CST (11/25) 3:54 AM CST (11/25)
Length of Visible Light 11h 05m
Length of Day
10h 11m
Waxing Gibbous, 93% of the Moon is Illuminated
Nov 25
Waxing Gibbous
Nov 28
Full
Dec 6
Last Quarter
Dec 13
New
Dec 19
First Quarter

Hourly Weather History & Observations

Time (CST) Temp. Windchill Dew Point Humidity Pressure Visibility Wind Dir Wind Speed Gust Speed Precip Events Conditions
12:55 AM 27.0 °F - 23.9 °F 88% 30.20 in 10.0 mi Calm Calm - N/A   Clear
1:55 AM 26.2 °F - 23.0 °F 88% 30.19 in 10.0 mi Calm Calm - N/A   Clear
2:55 AM 25.5 °F - 22.8 °F 89% 30.19 in 10.0 mi Calm Calm - N/A   Clear
3:55 AM 26.4 °F - 24.1 °F 91% 30.19 in 10.0 mi Calm Calm - N/A   Clear
4:55 AM 24.3 °F - 21.7 °F 90% 30.19 in 10.0 mi Calm Calm - N/A   Clear
5:55 AM 23.9 °F - 20.8 °F 88% 30.20 in 10.0 mi Calm Calm - N/A   Clear
6:55 AM 23.2 °F - 20.3 °F 89% 30.21 in 10.0 mi Calm Calm - N/A   Clear
7:55 AM 30.9 °F 27.5 °F 26.6 °F 84% 30.22 in 10.0 mi SSE 3.5 mph - N/A   Clear
8:55 AM 39.9 °F 37.8 °F 28.4 °F 63% 30.22 in 10.0 mi SSE 3.5 mph - N/A   Clear
9:55 AM 48.0 °F - 25.7 °F 42% 30.22 in 10.0 mi South 9.2 mph - N/A   Clear
10:55 AM 52.0 °F - 25.2 °F 35% 30.19 in 10.0 mi SSE 6.9 mph - N/A   Clear
11:55 AM 55.0 °F - 23.7 °F 30% 30.15 in 10.0 mi SSE 6.9 mph - N/A   Clear
12:55 PM 57.9 °F - 23.2 °F 26% 30.12 in 10.0 mi SSW 6.9 mph - N/A   Clear
1:55 PM 58.8 °F - 23.2 °F 25% 30.10 in 10.0 mi SSW 6.9 mph - N/A   Clear
2:55 PM 59.7 °F - 25.0 °F 26% 30.09 in 10.0 mi SSW 8.1 mph - N/A   Clear
3:55 PM 59.2 °F - 26.2 °F 28% 30.09 in 10.0 mi South 6.9 mph - N/A   Clear
4:55 PM 50.0 °F - 28.8 °F 44% 30.09 in 10.0 mi ESE 4.6 mph - N/A   Clear
5:55 PM 44.1 °F 40.8 °F 32.5 °F 64% 30.09 in 10.0 mi ESE 5.8 mph - N/A   Clear
6:55 PM 42.6 °F 37.8 °F 29.5 °F 60% 30.10 in 10.0 mi SSE 8.1 mph - N/A   Clear
7:55 PM 37.0 °F 31.6 °F 28.9 °F 73% 30.10 in 10.0 mi SSE 6.9 mph - N/A   Clear
8:55 PM 41.0 °F 38.0 °F 29.3 °F 63% 30.11 in 10.0 mi SE 4.6 mph - N/A   Clear
9:55 PM 35.6 °F 31.7 °F 28.9 °F 77% 30.11 in 10.0 mi SSE 4.6 mph - N/A   Clear
10:55 PM 38.3 °F 33.9 °F 29.3 °F 70% 30.11 in 10.0 mi SE 5.8 mph - N/A   Clear
11:55 PM 34.9 °F 30.8 °F 28.8 °F 78% 30.10 in 10.0 mi SE 4.6 mph - N/A   Clear